UAL250 KLAS-KLAX

Flight info

Callsign UAL250
Flight time N/A
Altitude 28000
Route RADYR2 BLAQQ SHTNR ANJLL4
Aircraft A20N/M-SDE2E3FGHIRWXY/LB1

Departure

Time 2026-04-30 22:45
Airport Harry Reid International Airport (KLAS)

Arrival

Time N/A
Airport Los Angeles International Airport (KLAX)
Time Latitude Longitude Altitude Speed Heading
2026-04-30 22:09 36.08532 -115.14057 2081 ft 0 kts 359°
2026-04-30 22:31 36.08531 -115.14057 2081 ft 1 kts 359°
2026-04-30 22:32 36.08488 -115.14049 2081 ft 2 kts 336°
2026-04-30 22:32 36.08466 -115.14021 2082 ft 2 kts 282°
2026-04-30 22:33 36.08464 -115.14002 2081 ft 0 kts 268°
2026-04-30 22:36 36.08462 -115.14012 2082 ft 0 kts 250°
2026-04-30 22:36 36.08460 -115.14017 2082 ft 3 kts 249°
2026-04-30 22:37 36.08343 -115.14177 2092 ft 9 kts 225°
2026-04-30 22:37 36.08284 -115.14238 2096 ft 12 kts 199°
2026-04-30 22:37 36.08081 -115.14243 2102 ft 16 kts 179°
2026-04-30 22:38 36.07865 -115.14248 2108 ft 16 kts 182°
2026-04-30 22:38 36.07756 -115.14356 2116 ft 9 kts 270°
2026-04-30 22:39 36.07757 -115.14428 2120 ft 8 kts 272°
2026-04-30 22:39 36.07785 -115.14858 2139 ft 29 kts 274°
2026-04-30 22:40 36.07799 -115.15788 2165 ft 37 kts 270°
2026-04-30 22:41 36.07747 -115.16124 2164 ft 0 kts 178°
2026-04-30 22:43 36.07723 -115.16124 2164 ft 10 kts 184°
2026-04-30 22:44 36.07637 -115.15963 2162 ft 48 kts 89°
2026-04-30 22:45 36.07605 -115.11288 3446 ft 172 kts 90°
2026-04-30 22:45 36.07590 -115.08214 4475 ft 198 kts 93°
2026-04-30 22:46 36.07052 -115.04476 5298 ft 245 kts 100°
2026-04-30 22:47 36.05661 -114.95717 8753 ft 269 kts 100°
2026-04-30 22:47 36.04499 -114.91316 10497 ft 279 kts 129°
2026-04-30 22:48 36.01148 -114.88976 12142 ft 284 kts 166°
2026-04-30 22:49 35.95909 -114.90983 14504 ft 282 kts 227°
2026-04-30 22:49 35.91116 -114.96493 15232 ft 349 kts 225°
2026-04-30 22:50 35.87018 -115.07060 18122 ft 354 kts 261°
2026-04-30 22:51 35.86118 -115.13089 19463 ft 359 kts 261°
2026-04-30 22:51 35.85205 -115.19123 20783 ft 363 kts 261°
2026-04-30 22:52 35.84704 -115.22188 21417 ft 366 kts 256°
2026-04-30 22:52 35.82180 -115.27628 22724 ft 378 kts 229°
2026-04-30 22:53 35.77591 -115.31012 23863 ft 396 kts 205°
2026-04-30 22:53 35.72388 -115.33423 24861 ft 401 kts 206°
2026-04-30 22:53 35.69770 -115.34643 25333 ft 404 kts 206°
2026-04-30 22:54 35.64516 -115.37086 26229 ft 411 kts 204°
2026-04-30 22:55 35.55838 -115.38456 27537 ft 436 kts 182°
2026-04-30 22:55 35.49697 -115.37981 27930 ft 451 kts 183°
2026-04-30 22:56 35.43414 -115.38736 27930 ft 458 kts 200°
2026-04-30 22:56 35.34834 -115.43514 27925 ft 452 kts 212°
2026-04-30 22:57 35.29253 -115.47086 27914 ft 451 kts 212°
2026-04-30 22:57 35.23697 -115.50627 27908 ft 450 kts 212°
2026-04-30 22:58 35.18132 -115.54170 27901 ft 449 kts 212°
2026-04-30 22:59 35.10506 -115.60397 27890 ft 438 kts 226°
2026-04-30 22:59 35.04169 -115.68379 27884 ft 435 kts 230°